Regional Weather Roundup
Issued by NWS Charleston, SC

Current Version | Previous Version | Text Only | Print | Product List | Glossary Off
Versions: 1 2 3 4 5 6 7 8 9 10 11 12 13 14 15 16 17 18 19 20 21 22 23 24 25 26 27 28 29 30 31 32 33 34 35 36 37 38 39 40 41 42 43 44 45 46 47 48 49 50
000 ASUS42 KCHS 281913 RWRCHS REGIONAL WEATHER ROUNDUP NATIONAL WEATHER SERVICE CHARLESTON SC 300 PM EDT SAT MAY 28 2016 NOTE: "FAIR" INDICATES FEW OR NO CLOUDS BELOW 12,000 FEET WITH NO SIGNIFICANT WEATHER AND/OR OBSTRUCTIONS TO VISIBILITY. NOT ALL STATIONS ARE QUALITY CONTROLLED. USE DATA WITH CAUTION... ESPECIALLY DEWPOINT OBSERVATIONS. SCZ027-030-031-034>040-042>050-282000- ...SOUTHEAST SOUTH CAROLINA... CITY SKY/WX TMP DP RH WIND PRES REMARKS N CHARLESTON RAIN 71 67 87 NE12 30.11S FOG WATERFRONT PRK N/A 73 71 93 NE12 30.08S MOUNT PLEASANT RAIN 72 70 94 N7 30.11R JOHNS ISLAND HVY RAIN 72 70 94 N9G15 30.10S PINOPOLIS N/A 75 70 83 E9 N/A MONCKS CORNER RAIN 70 66 88 E6 30.12R SUMMERVILLE RAIN 72 72 100 NE5 30.12S BEAUFORT MCAS LGT RAIN 73 69 87 NE10 30.09F BEAUFORT ARPT RAIN 72 68 88 NE10G16 30.09S HILTON HEAD IS RAIN 73 70 88 N12 30.10S WALTERBORO LGT RAIN 79 64 61 E9 30.11S ALLENDALE FAIR 81 68 65 VRB7 30.09S ...SOUTHERN MIDLANDS AND PEE DEE... CITY SKY/WX TMP DP RH WIND PRES REMARKS GEORGETOWN NOT AVBL KINGSTREE LGT RAIN 77 64 65 E6 30.12R ORANGEBURG CLOUDY 83 66 56 VRB6 30.10F BARNWELL FAIR 84 72 65 E5 30.11S AIKEN MOCLDY 79 64 61 N7 30.14F MANNING LGT RAIN 77 68 73 SE5 30.11S COLUMBIA CLOUDY 85 64 49 E9 30.10F SUMTER CLOUDY 83 65 54 NE10 30.09F FLORENCE CLOUDY 84 62 47 E8 30.12F MYRTLE BEACH NOT AVBL N MYRTLE BEACH CLOUDY 78 69 73 E12G21 30.11F $$ GAZ063-065-086>088-099>101-113>116-118-119-134>141-150-282000- ...SOUTHEAST GEORGIA... CITY SKY/WX TMP DP RH WIND PRES REMARKS SAVANNAH ARPT CLOUDY 79 69 71 N8 30.08S HUNTER AAF CLOUDY 80 71 74 VRB7 30.05S FORT STEWART CLOUDY 82 67 60 NE8 30.05S STATESBORO CLOUDY 83 71 67 NE3 30.08F SYLVANIA CLOUDY 83 71 66 CALM 30.10S CLAXTON FAIR 84 68 57 NE10 30.08S ...CSRA...CENTRAL AND FAR SOUTHEAST GEORGIA... CITY SKY/WX TMP DP RH WIND PRES REMARKS THOMSON CLOUDY 83 69 62 NE7 30.16F AUGUSTA-BUSH CLOUDY 83 67 58 NE7 30.10F AUGUSTA-DANIEL CLOUDY 83 66 56 N9 30.12F SWAINSBORO LGT RAIN 75 70 83 E5 30.11S VIDALIA CLOUDY 82 64 54 E7 30.08F EASTMAN MOCLDY 86 62 44 E7 30.10S HAZLEHURST FAIR 89 62 40 N10 30.05F ALMA MOSUNNY 87 64 46 NW6 30.05F WAYCROSS PTSUNNY 87 67 50 N9 30.04F HX 90 JESUP MOCLDY 81 64 57 NE10 30.06S BAXLEY PTSUNNY 88 66 48 NE10G18 30.05F HX 90 BRUNSWICK PTSUNNY 86 70 58 NE13G22 30.05F HX 90 SAINT SIMONS MOSUNNY 83 71 67 NE16G23 30.04F $$ SCZ027-028-034-036>038-045-046-048>050-GAZ119-141-282000- ...LAKE AND SUPPLEMENTAL COASTAL OBSERVATIONS... STATION/POSITION TIME TEMP WIND PRES WAVE SWELL AIR SEA DIR/SP/G HT/PER HT/PER/DIR (UTC) (F) (DEG/KT/KT) (MB) (FT/S) (FT/S/D) WINYAH BAY NOT AVBL LAKE MURRAY 1800 79 50/ 1/ 5 1019.6F ACE BASIN NERRS NOT AVBL FORT PULASKI 1800 74 77 50/ 12/ 16 1018.9F SAPELO ISLAND 1800 81 40/ 14 1018.0F $$ ANZ835-935-AMZ111-154-330-350-352-354-370-450-454-472-282000- ...C-MAN AND BUOY OBSERVATIONS... STATION/POSITION TIME TEMP WIND PRES WAVE SWELL AIR SEA DIR/SP/G HT/PER HT/PER/DIR (UTC) (F) (DEG/KT/KT) (MB) (FT/S) (FT/S/D) BUOY 41004 1850 76 76 40/ 21/ 25 1016.1S 7/ 9 5/ 9 BUOY 41008 1850 75 76 40/ 21/ 25 1016.4F 5/ 9 3/100/ 9 FOLLY BEACH CMAN 1900 71 10/ 19/ 23 1019.2S CAPERS NEARSHORE 1808 73 76 30/ 19/ 25 1018.8F FRIPP NEARSHORE 1808 73 76 60/ 21/ 29 1017.4F STATION/POSITION TIME TEMP WIND PRES WAVE SWELL AIR SEA DIR/SP/G HT/PER HT/PER/DIR (UTC) (F) (DEG/KT/KT) (MB) (FT/S) (FT/S/D) 5E ST. MARYS GA 1801 78 N/A 5/ 8 2/100/11 FRYING PAN BUOY 1800 76 76 50/ 17/ 21 1018.6F BUOY 41025 1850 78 78 80/ 10/ 10 1021.1F 6/ 8 5/130/ 8 CAPE LOOKOUT NC 1900 77 40/ 8/ 11 1020.6F BUOY 41002 1850 76 76 100/ 16/ 17 1018.1F 4/ 6 2/110/ 7 BUOY 41010 1820 78 79 260/ 12/ 16 1015.4F ST AUGUSTINE FL 1900 76 80 360/ 18/ 20 1017.3F $$

USA.gov is the U.S. government's official web portal to all federal, state and local government web resources and services.